Tracking 20724 objects as of 2-Jun-2020
HD Live streaming from Space Station
objects crossing your sky now

INFORMATOR 1

Track INFORMATOR 1 now!
10-day predictions
INFORMATOR 1 is classified as:


NORAD ID: 21087
Int'l Code: 1991-006A
Perigee: 963.0 km
Apogee: 1,012.7 km
Inclination: 82.9 °
Period: 104.7 minutes
Semi major axis: 7358 km
RCS: 1.8857 m2 (large)
Launch date: January 29, 1991
Source: Commonwealth of Independent States (former USSR) (CIS)
Launch site: PLESETSK MISSILE AND SPACE COMPLEX (PKMTR)
aabbcc
Your satellite tracking list
Your tracking list is empty




NASA's NSSDC Master Catalog

Two Line Element Set (TLE):
1 21087U 91006A   20154.60627760 +.00000049 +00000-0 +35359-4 0  9992
2 21087 082.9418 319.8585 0033770 272.8096 156.0835 13.75283310472368
Source of the keplerian elements: AFSPC